Date String (YYYY-MM-DD hh:mm:ss) UTC,Instrument flags,Ambient pressure (hPa),Sample flow (lpm),Bypass flow (lpm),Sample temperature (°C),Ambient temperature (°C),ASC tube jacket temperature (°C),LED temperature (°C),Box temperature (°C),Sample RH (%),Span deviation,Mass concentration (μg/m³),Mass concentration (μg/m³),Mass concentration (μg/m³)
DateTimeUTC,F1_M11,P_M11,Q1_M11,Q2_M11,T1_M11,T2_M11,T3_M11,T4_M11,T5_M11,U1_M11,ZSPAN_M11,X2_M11,X0_M11,X1_M11
2022-06-24 16:00:00,,0825.6,5.00,0.00,29.4,28.3,00.0,38.2,31.4,20.8,0000.0,0003.72,0011.47,0002.21
2022-06-24 16:01:00,,0825.6,4.99,0.00,29.5,28.4,00.0,38.2,31.4,20.6,0000.0,0003.69,0011.57,0002.20
2022-06-24 16:02:00,,0825.6,5.00,0.00,29.5,28.5,00.0,38.2,31.5,20.5,0000.0,0003.65,0011.01,0002.19
2022-06-24 16:03:00,,0825.6,5.01,0.00,29.5,28.4,00.0,38.2,31.5,20.4,0000.0,0003.64,0011.15,0002.18
2022-06-24 16:04:00,,0825.6,5.01,0.00,29.5,27.7,00.0,38.2,31.3,21.0,0000.0,0003.64,0010.93,0002.18
2022-06-24 16:05:00,,0825.6,5.02,0.00,29.4,27.4,00.0,38.1,31.2,20.6,0000.0,0003.62,0010.65,0002.18
2022-06-24 16:06:00,,0825.6,5.00,0.00,29.4,27.4,00.0,38.1,31.1,20.7,0000.0,0003.63,0010.81,0002.15
2022-06-24 16:07:00,,0825.6,4.99,0.00,29.4,27.5,00.0,38.1,31.1,20.6,0000.0,0003.62,0010.76,0002.14
2022-06-24 16:08:00,,0825.6,5.01,0.00,29.3,27.6,00.0,38.1,31.2,20.4,0000.0,0003.58,0010.87,0002.13
2022-06-24 16:09:00,,0825.6,5.00,0.00,29.3,27.8,00.0,38.1,31.2,20.8,0000.0,0003.62,0011.37,0002.14
2022-06-24 16:10:00,,0825.7,5.00,0.00,29.4,27.9,00.0,38.1,31.3,20.6,0000.0,0003.64,0012.33,0002.13
2022-06-24 16:11:00,,0825.7,5.00,0.00,29.4,28.1,00.0,38.2,31.3,20.5,0000.0,0003.63,0012.78,0002.12
2022-06-24 16:12:00,,0825.7,5.00,0.00,29.4,28.2,00.0,38.2,31.3,20.3,0000.0,0003.58,0012.12,0002.13
2022-06-24 16:13:00,,0825.7,4.98,0.00,29.4,28.3,00.0,38.2,31.4,20.1,0000.0,0003.59,0012.63,0002.12
2022-06-24 16:14:00,,0825.7,5.00,0.00,29.5,28.5,00.0,38.2,31.4,19.4,0000.0,0003.59,0012.83,0002.09
2022-06-24 16:15:00,,0825.6,5.00,0.00,29.5,28.5,00.0,38.2,31.4,19.9,0000.0,0003.60,0013.01,0002.08
2022-06-24 16:16:00,,0825.6,5.01,0.00,29.5,28.0,00.0,38.2,31.3,20.2,0000.0,0003.60,0012.95,0002.07
2022-06-24 16:17:00,,0825.6,5.00,0.00,29.4,27.5,00.0,38.1,31.2,19.9,0000.0,0003.64,0013.01,0002.08
2022-06-24 16:18:00,,0825.6,5.00,0.00,29.4,27.4,00.0,38.1,31.1,19.9,0000.0,0003.62,0012.87,0002.07
2022-06-24 16:19:00,,0825.6,5.00,0.00,29.3,27.5,00.0,38.1,31.1,20.0,0000.0,0003.63,0013.15,0002.06
2022-06-24 16:20:00,,0825.6,5.00,0.00,29.3,27.6,00.0,38.1,31.1,20.3,0000.0,0003.65,0012.86,0002.06
2022-06-24 16:21:00,,0825.6,5.00,0.00,29.3,27.8,00.0,38.1,31.2,20.3,0000.0,0003.65,0012.47,0002.07
2022-06-24 16:22:00,,0825.6,5.01,0.00,29.3,27.9,00.0,38.1,31.2,20.6,0000.0,0003.69,0013.36,0002.08
2022-06-24 16:23:00,,0825.6,5.00,0.00,29.4,28.1,00.0,38.1,31.3,20.5,0000.0,0003.82,0015.17,0002.14
2022-06-24 16:24:00,,0825.6,4.99,0.00,29.4,28.2,00.0,38.1,31.3,20.6,0000.0,0003.90,0015.97,0002.18
2022-06-24 16:25:00,,0825.6,5.00,0.00,29.4,28.3,00.0,38.1,31.4,20.8,0000.0,0003.96,0017.07,0002.23
2022-06-24 16:26:00,,0825.6,4.99,0.00,29.4,28.4,00.0,38.2,31.4,20.4,0000.0,0004.04,0017.67,0002.29
2022-06-24 16:27:00,,0825.6,4.99,0.00,29.4,28.0,00.0,38.1,31.3,20.4,0000.0,0004.15,0018.63,0002.35
2022-06-24 16:28:00,,0825.6,5.00,0.00,29.4,27.4,00.0,38.1,31.1,20.4,0000.0,0004.18,0019.03,0002.38
2022-06-24 16:29:00,,0825.5,5.01,0.00,29.3,27.3,00.0,38.1,31.1,20.5,0000.0,0004.25,0019.39,0002.41
2022-06-24 16:30:00,,0825.6,5.00,0.00,29.3,27.4,00.0,38.1,31.1,20.1,0000.0,0004.33,0019.53,0002.45
2022-06-24 16:31:00,,0825.5,5.01,0.00,29.3,27.5,00.0,38.1,31.1,20.6,0000.0,0004.35,0020.55,0002.47
2022-06-24 16:32:00,,0825.5,5.00,0.00,29.3,27.6,00.0,38.1,31.1,20.6,0000.0,0004.41,0021.86,0002.50
2022-06-24 16:33:00,,0825.5,5.00,0.00,29.3,27.8,00.0,38.1,31.2,20.5,0000.0,0004.45,0021.47,0002.51
2022-06-24 16:34:00,,0825.5,4.99,0.00,29.3,28.0,00.0,38.1,31.2,20.1,0000.0,0004.48,0019.39,0002.49
2022-06-24 16:35:00,,0825.5,5.00,0.00,29.3,28.1,00.0,38.1,31.3,20.1,0000.0,0004.44,0018.70,0002.47
2022-06-24 16:36:00,,0825.5,5.00,0.00,29.4,28.2,00.0,38.1,31.3,20.1,0000.0,0004.40,0017.45,0002.45
2022-06-24 16:37:00,,0825.4,5.00,0.00,29.4,28.2,00.0,38.1,31.3,20.0,0000.0,0004.32,0017.08,0002.41
2022-06-24 16:38:00,,0825.4,4.99,0.00,29.3,27.7,00.0,38.0,31.2,19.9,0000.0,0004.25,0016.56,0002.38
2022-06-24 16:39:00,,0825.5,5.01,0.00,29.3,27.2,00.0,38.0,31.0,20.3,0000.0,0004.19,0016.82,0002.36
2022-06-24 16:40:00,,0825.4,5.00,0.00,29.2,27.2,00.0,38.0,31.0,20.1,0000.0,0004.11,0018.43,0002.33
2022-06-24 16:41:00,,0825.4,4.99,0.00,29.2,27.3,00.0,38.0,31.0,19.9,0000.0,0004.10,0018.52,0002.32
2022-06-24 16:42:00,,0825.5,4.99,0.00,29.2,27.5,00.0,38.0,31.0,19.7,0000.0,0004.05,0018.02,0002.28
2022-06-24 16:43:00,,0825.4,5.00,0.00,29.2,27.6,00.0,38.0,31.1,19.7,0000.0,0003.97,0017.43,0002.23
2022-06-24 16:44:00,,0825.5,4.99,0.00,29.2,27.8,00.0,38.0,31.1,19.4,0000.0,0003.88,0017.24,0002.21
2022-06-24 16:45:00,,0825.4,5.00,0.00,29.2,28.0,00.0,38.0,31.2,19.8,0000.0,0003.77,0017.57,0002.19
2022-06-24 16:46:00,,0825.4,4.99,0.00,29.3,28.1,00.0,38.0,31.2,19.8,0000.0,0003.81,0018.17,0002.17
2022-06-24 16:47:00,,0825.4,5.00,0.00,29.3,28.3,00.0,38.0,31.3,19.5,0000.0,0003.80,0018.42,0002.16
2022-06-24 16:48:00,,0825.4,5.00,0.00,29.3,28.0,00.0,38.0,31.3,19.6,0000.0,0003.77,0018.49,0002.15
2022-06-24 16:49:00,,0825.4,5.00,0.00,29.3,27.4,00.0,38.0,31.1,19.5,0000.0,0003.75,0018.10,0002.12
2022-06-24 16:50:00,,0825.4,5.00,0.00,29.2,27.2,00.0,37.9,31.0,19.5,0000.0,0003.69,0017.83,0002.11
2022-06-24 16:51:00,,0825.4,5.00,0.00,29.2,27.2,00.0,37.9,31.0,19.3,0000.0,0003.67,0015.66,0002.10
2022-06-24 16:52:00,,0825.4,5.00,0.00,29.2,27.3,00.0,37.9,31.0,19.4,0000.0,0003.61,0015.30,0002.08
2022-06-24 16:53:00,,0825.4,5.00,0.00,29.2,27.5,00.0,38.0,31.0,19.1,0000.0,0003.59,0015.20,0002.08
2022-06-24 16:54:00,,0825.4,4.99,0.00,29.2,27.7,00.0,38.0,31.1,18.9,0000.0,0003.60,0014.76,0002.08
2022-06-24 16:55:00,,0825.4,5.00,0.00,29.2,27.8,00.0,38.0,31.1,19.1,0000.0,0003.58,0013.92,0002.07
2022-06-24 16:56:00,,0825.5,5.01,0.00,29.2,28.0,00.0,38.0,31.2,19.1,0000.0,0003.55,0013.96,0002.04
2022-06-24 16:57:00,,0825.4,5.00,0.00,29.2,28.1,00.0,38.0,31.2,19.1,0000.0,0003.43,0013.22,0002.01
2022-06-24 16:58:00,,0825.4,5.00,0.00,29.3,28.3,00.0,38.0,31.3,19.2,0000.0,0003.37,0012.88,0002.01
2022-06-24 16:59:00,,0825.4,4.99,0.00,29.3,28.4,00.0,38.0,31.3,19.3,0000.0,0003.38,0012.48,0002.00
